Location: Spring Mountain Observatory
(40.2501°N, 75.4333°W)
Time: 15:51:02
(UTC-05:00)

Envisat - Visible Passes

Search period start: 20 January 2018 00:00
Search period end: 30 January 2018 00:00
Orbit: 764 x 766 km, 98.2° (Epoch: 20 January)

Date Brightness Start Highest point End Pass type
(mag) Time Alt. Az. Time Alt. Az. Time Alt. Az.
20 Jan 4.5 18:48:34 19° NNE 18:48:34 19° NNE 18:50:23 10° N visible
20 Jan 5.5 20:28:45 14° NW 20:28:45 14° NW 20:29:33 10° NNW visible
21 Jan 4.8 18:11:10 12° NE 18:11:10 12° NE 18:12:13 10° NNE visible
21 Jan 4.7 19:51:21 23° NNW 19:51:21 23° NNW 19:53:14 10° NNW visible
22 Jan 4.2 19:13:56 27° NNE 19:13:56 27° NNE 19:16:23 10° N visible
22 Jan 5.9 20:54:07 11° NW 20:54:07 11° NW 20:54:19 10° NW visible
23 Jan 4.4 18:36:31 20° NE 18:36:31 20° NE 18:38:58 10° NNE visible
23 Jan 5.0 20:16:42 22° NW 20:16:42 22° NW 20:18:37 10° NNW visible
24 Jan 4.8 17:59:05 11° NE 17:59:05 11° NE 17:59:55 10° NE visible
24 Jan 4.1 19:39:17 34° N 19:39:17 34° N 19:42:07 10° NNW visible
25 Jan 3.8 19:01:50 32° NE 19:01:50 32° NE 19:05:07 10° N visible
25 Jan 5.5 20:42:01 17° NW 20:42:01 17° NW 20:43:37 10° NW visible
26 Jan 4.3 18:24:23 18° ENE 18:24:23 18° ENE 18:27:28 10° NNE visible
26 Jan 4.3 20:04:34 34° NW 20:04:34 34° NW 20:07:36 10° NNW visible
27 Jan 3.3 19:27:07 50° NNE 19:27:07 50° NNE 19:30:58 10° N visible
27 Jan 6.0 21:07:18 11° WNW 21:07:18 11° WNW 21:07:48 10° WNW visible
28 Jan 3.7 18:49:39 31° ENE 18:49:39 31° ENE 18:53:48 10° N visible
28 Jan 4.9 20:29:51 26° WNW 20:29:51 26° WNW 20:32:47 10° NW visible
29 Jan 4.5 18:12:11 14° ENE 18:13:04 15° ENE 18:15:49 10° NNE visible
29 Jan 3.5 19:52:22 56° NW 19:52:22 56° NW 19:56:33 10° NNW visible
